Year,Month,Day,Hour,Minute,Value (Times are PST for temperature in C)
2011,07,09,00,00,9.90
2011,07,09,00,01,9.90
2011,07,09,00,02,9.80
2011,07,09,00,03,9.80
2011,07,09,00,04,9.80
2011,07,09,00,05,9.70
2011,07,09,00,06,9.70
2011,07,09,00,07,9.70
2011,07,09,00,08,9.70
2011,07,09,00,09,9.70
2011,07,09,00,10,9.60
2011,07,09,00,11,9.60
2011,07,09,00,12,9.60
2011,07,09,00,13,9.60
2011,07,09,00,14,9.60
2011,07,09,00,15,9.50
2011,07,09,00,16,9.50
2011,07,09,00,17,9.50
2011,07,09,00,18,9.40
2011,07,09,00,19,9.40
2011,07,09,00,20,9.40
2011,07,09,00,21,9.40
2011,07,09,00,22,9.30
2011,07,09,00,23,9.30
2011,07,09,00,24,9.30
2011,07,09,00,25,9.30
2011,07,09,00,26,9.30
2011,07,09,00,27,9.30
2011,07,09,00,28,9.20
2011,07,09,00,29,9.20
2011,07,09,00,30,9.20
2011,07,09,00,31,9.10
2011,07,09,00,32,9.10
2011,07,09,00,33,9.10
2011,07,09,00,34,9.10
2011,07,09,00,35,9.10
2011,07,09,00,36,9.00
2011,07,09,00,37,9.00
2011,07,09,00,38,9.00
2011,07,09,00,39,9.00
2011,07,09,00,40,8.90
2011,07,09,00,41,8.90
2011,07,09,00,42,8.90
2011,07,09,00,43,8.90
2011,07,09,00,44,8.90
2011,07,09,00,45,8.80
2011,07,09,00,46,8.80
2011,07,09,00,47,8.80
2011,07,09,00,48,8.80
2011,07,09,00,49,8.80
2011,07,09,00,50,8.80
2011,07,09,00,51,8.80
2011,07,09,00,52,8.80
2011,07,09,00,53,8.80
2011,07,09,00,54,8.80
2011,07,09,00,55,8.80
2011,07,09,00,56,8.80
2011,07,09,00,57,8.80
2011,07,09,00,58,8.80
2011,07,09,00,59,8.80
2011,07,09,01,00,8.80
2011,07,09,01,01,8.70
2011,07,09,01,02,8.70
2011,07,09,01,03,8.70
2011,07,09,01,04,8.70
2011,07,09,01,05,8.70
2011,07,09,01,06,8.70
2011,07,09,01,07,8.60
2011,07,09,01,08,8.60
2011,07,09,01,09,8.60
2011,07,09,01,10,8.60
2011,07,09,01,11,8.60
2011,07,09,01,12,8.60
2011,07,09,01,13,8.60
2011,07,09,01,14,8.60
2011,07,09,01,15,8.60
2011,07,09,01,16,8.60
2011,07,09,01,17,8.60
2011,07,09,01,18,8.60
2011,07,09,01,19,8.60
2011,07,09,01,20,8.60
2011,07,09,01,21,8.60
2011,07,09,01,22,8.60
2011,07,09,01,23,8.50
2011,07,09,01,24,8.50
2011,07,09,01,25,8.50
2011,07,09,01,26,8.50
2011,07,09,01,27,8.50
2011,07,09,01,28,8.50
2011,07,09,01,29,8.40
2011,07,09,01,30,8.40
2011,07,09,01,31,8.40
2011,07,09,01,32,8.40
2011,07,09,01,33,8.40
2011,07,09,01,34,8.40
2011,07,09,01,35,8.40
2011,07,09,01,36,8.40
2011,07,09,01,37,8.40
2011,07,09,01,38,8.30
2011,07,09,01,39,8.30
2011,07,09,01,40,8.30
2011,07,09,01,41,8.30
2011,07,09,01,42,8.30
2011,07,09,01,43,8.30
2011,07,09,01,44,8.30
2011,07,09,01,45,8.30
2011,07,09,01,46,8.30
2011,07,09,01,47,8.30
2011,07,09,01,48,8.30
2011,07,09,01,49,8.30
2011,07,09,01,50,8.30
2011,07,09,01,51,8.30
2011,07,09,01,52,8.30
2011,07,09,01,53,8.30
2011,07,09,01,54,8.20
2011,07,09,01,55,8.20
2011,07,09,01,56,8.20
2011,07,09,01,57,8.20
2011,07,09,01,58,8.20
2011,07,09,01,59,8.20
2011,07,09,02,00,8.20
2011,07,09,02,01,8.10
2011,07,09,02,02,8.10
2011,07,09,02,03,8.10
2011,07,09,02,04,8.10
2011,07,09,02,05,8.10
2011,07,09,02,06,8.10
2011,07,09,02,07,8.10
2011,07,09,02,08,8.10
2011,07,09,02,09,8.10
2011,07,09,02,10,8.10
2011,07,09,02,11,8.10
2011,07,09,02,12,8.10
2011,07,09,02,13,8.10
2011,07,09,02,14,8.10
2011,07,09,02,15,8.10
2011,07,09,02,16,8.10
2011,07,09,02,17,8.10
2011,07,09,02,18,8.10
2011,07,09,02,19,8.10
2011,07,09,02,20,8.10
2011,07,09,02,21,8.10
2011,07,09,02,22,8.10
2011,07,09,02,23,8.10
2011,07,09,02,24,8.10
2011,07,09,02,25,8.10
2011,07,09,02,26,8.10
2011,07,09,02,27,8.10
2011,07,09,02,28,8.10
2011,07,09,02,29,8.10
2011,07,09,02,30,8.10
2011,07,09,02,31,8.10
2011,07,09,02,32,8.10
2011,07,09,02,33,8.10
2011,07,09,02,34,8.20
2011,07,09,02,35,8.20
2011,07,09,02,36,8.20
2011,07,09,02,37,8.20
2011,07,09,02,38,8.10
2011,07,09,02,39,8.10
2011,07,09,02,40,8.10
2011,07,09,02,41,8.10
2011,07,09,02,42,8.10
2011,07,09,02,43,8.10
2011,07,09,02,44,8.10
2011,07,09,02,45,8.10
2011,07,09,02,46,8.10
2011,07,09,02,47,8.10
2011,07,09,02,48,8.10
2011,07,09,02,49,8.10
2011,07,09,02,50,8.10
2011,07,09,02,51,8.10
2011,07,09,02,52,8.10
2011,07,09,02,53,8.10
2011,07,09,02,54,8.10
2011,07,09,02,55,8.10
2011,07,09,02,56,8.00
2011,07,09,02,57,8.00
2011,07,09,02,58,8.00
2011,07,09,02,59,8.00
2011,07,09,03,00,8.00
2011,07,09,03,01,8.00
2011,07,09,03,02,8.00
2011,07,09,03,06,8.00
2011,07,09,03,07,8.00
2011,07,09,03,08,8.00
2011,07,09,03,09,8.00
2011,07,09,03,10,8.00
2011,07,09,03,11,8.10
2011,07,09,03,12,8.10
2011,07,09,03,13,8.10
2011,07,09,03,14,8.10
2011,07,09,03,15,8.10
2011,07,09,03,16,8.10
2011,07,09,03,17,8.10
2011,07,09,03,18,8.10
2011,07,09,03,19,8.10
2011,07,09,03,20,8.20
2011,07,09,03,21,8.20
2011,07,09,03,22,8.20
2011,07,09,03,23,8.20
2011,07,09,03,24,8.20
2011,07,09,03,25,8.20
2011,07,09,03,26,8.20
2011,07,09,03,27,8.20
2011,07,09,03,28,8.30
2011,07,09,03,29,8.30
2011,07,09,03,30,8.30
2011,07,09,03,31,8.40
2011,07,09,03,32,8.40
2011,07,09,03,33,8.40
2011,07,09,03,34,8.40
2011,07,09,03,35,8.50
2011,07,09,03,36,8.50
2011,07,09,03,37,8.60
2011,07,09,03,38,8.60
2011,07,09,03,39,8.60
2011,07,09,03,40,8.60
2011,07,09,03,41,8.70
2011,07,09,03,42,8.70
2011,07,09,03,43,8.70
2011,07,09,03,44,8.80
2011,07,09,03,45,8.80
2011,07,09,03,46,8.80
2011,07,09,03,47,8.80
2011,07,09,03,48,8.90
2011,07,09,03,49,8.90
2011,07,09,03,50,8.90
2011,07,09,03,51,8.90
2011,07,09,03,52,8.90
2011,07,09,03,53,8.90
2011,07,09,03,54,8.90
2011,07,09,03,55,8.90
2011,07,09,03,56,8.90
2011,07,09,03,57,8.90
2011,07,09,03,58,8.90
2011,07,09,03,59,8.90
2011,07,09,04,00,8.90
2011,07,09,04,01,8.90
2011,07,09,04,02,9.00
2011,07,09,04,03,9.00
2011,07,09,04,04,9.10
2011,07,09,04,05,9.10
2011,07,09,04,06,9.10
2011,07,09,04,07,9.20
2011,07,09,04,08,9.20
2011,07,09,04,09,9.20
2011,07,09,04,10,9.20
2011,07,09,04,11,9.20
2011,07,09,04,12,9.20
2011,07,09,04,13,9.20
2011,07,09,04,14,9.20
2011,07,09,04,15,9.20
2011,07,09,04,16,9.20
2011,07,09,04,17,9.20
2011,07,09,04,18,9.30
2011,07,09,04,19,9.30
2011,07,09,04,20,9.30
2011,07,09,04,21,9.30
2011,07,09,04,22,9.30
2011,07,09,04,23,9.30
2011,07,09,04,24,9.30
2011,07,09,04,25,9.30
2011,07,09,04,26,9.30
2011,07,09,04,27,9.30
2011,07,09,04,28,9.30
2011,07,09,04,29,9.30
2011,07,09,04,30,9.40
2011,07,09,04,31,9.40
2011,07,09,04,32,9.40
2011,07,09,04,33,9.40
2011,07,09,04,34,9.40
2011,07,09,04,35,9.40
2011,07,09,04,36,9.40
2011,07,09,04,37,9.40
2011,07,09,04,38,9.40
2011,07,09,04,39,9.40
2011,07,09,04,40,9.50
2011,07,09,04,41,9.50
2011,07,09,04,42,9.50
2011,07,09,04,43,9.60
2011,07,09,04,44,9.60
2011,07,09,04,45,9.60
2011,07,09,04,46,9.60
2011,07,09,04,47,9.60
2011,07,09,04,48,9.60
2011,07,09,04,49,9.60
2011,07,09,04,50,9.60
2011,07,09,04,51,9.60
2011,07,09,04,52,9.60
2011,07,09,04,53,9.60
2011,07,09,04,54,9.60
2011,07,09,04,55,9.60
2011,07,09,04,56,9.60
2011,07,09,04,57,9.60
2011,07,09,04,58,9.70
2011,07,09,04,59,9.70
2011,07,09,05,00,9.70
2011,07,09,05,01,9.70
2011,07,09,05,02,9.70
2011,07,09,05,03,9.70
2011,07,09,05,04,9.70
2011,07,09,05,05,9.70
2011,07,09,05,06,9.70
2011,07,09,05,07,9.80
2011,07,09,05,08,9.80
2011,07,09,05,09,9.80
2011,07,09,05,10,9.80
2011,07,09,05,11,9.80
2011,07,09,05,12,9.80
2011,07,09,05,13,9.80
2011,07,09,05,14,9.80
2011,07,09,05,15,9.80
2011,07,09,05,16,9.80
2011,07,09,05,17,9.80
2011,07,09,05,18,9.90
2011,07,09,05,19,9.90
2011,07,09,05,20,9.90
2011,07,09,05,21,9.90
2011,07,09,05,22,9.90
2011,07,09,05,23,9.90
2011,07,09,05,24,9.90
2011,07,09,05,25,9.90
2011,07,09,05,26,9.80
2011,07,09,05,27,9.80
2011,07,09,05,28,9.80
2011,07,09,05,29,9.80
2011,07,09,05,30,9.80
2011,07,09,05,31,9.80
2011,07,09,05,32,9.80
2011,07,09,05,33,9.80
2011,07,09,05,34,9.80
2011,07,09,05,35,9.80
2011,07,09,05,36,9.80
2011,07,09,05,37,9.80
2011,07,09,05,38,9.90
2011,07,09,05,39,9.80
2011,07,09,05,40,9.80
2011,07,09,05,41,9.80
2011,07,09,05,42,9.80
2011,07,09,05,43,9.80
2011,07,09,05,44,9.80
2011,07,09,05,45,9.90
2011,07,09,05,46,9.90
2011,07,09,05,47,9.90
2011,07,09,05,48,9.90
2011,07,09,05,49,9.90
2011,07,09,05,50,9.90
2011,07,09,05,51,9.90
2011,07,09,05,52,9.90
2011,07,09,05,53,10.00
2011,07,09,05,54,10.00
2011,07,09,05,55,10.00
2011,07,09,05,56,10.00
2011,07,09,05,57,10.00
2011,07,09,05,58,10.00
2011,07,09,05,59,10.10
2011,07,09,06,00,10.10
2011,07,09,06,01,10.10
2011,07,09,06,02,10.10
2011,07,09,06,03,10.10
2011,07,09,06,04,10.10
2011,07,09,06,05,10.10
2011,07,09,06,06,10.10
2011,07,09,06,07,10.10
2011,07,09,06,08,10.10
2011,07,09,06,09,10.10
2011,07,09,06,10,10.10
2011,07,09,06,11,10.10
2011,07,09,06,12,10.10
2011,07,09,06,13,10.10
2011,07,09,06,14,10.10
2011,07,09,06,15,10.10
2011,07,09,06,16,10.00
2011,07,09,06,17,10.00
2011,07,09,06,18,10.00
2011,07,09,06,19,10.00
2011,07,09,06,20,9.90
2011,07,09,06,21,9.90
2011,07,09,06,22,9.90
2011,07,09,06,23,9.90
2011,07,09,06,24,9.90
2011,07,09,06,25,9.90
2011,07,09,06,26,9.90
2011,07,09,06,27,9.90
2011,07,09,06,28,9.90
2011,07,09,06,29,9.90
2011,07,09,06,30,9.90
2011,07,09,06,31,9.90
2011,07,09,06,32,9.90
2011,07,09,06,33,9.90
2011,07,09,06,34,9.90
2011,07,09,06,35,9.90
2011,07,09,06,36,10.00
2011,07,09,06,37,10.00
2011,07,09,06,38,10.00
2011,07,09,06,39,10.00
2011,07,09,06,40,10.00
2011,07,09,06,41,10.10
2011,07,09,06,42,10.10
2011,07,09,06,43,10.10
2011,07,09,06,44,10.10
2011,07,09,06,45,10.20
2011,07,09,06,46,10.20
2011,07,09,06,47,10.30
2011,07,09,06,48,10.30
2011,07,09,06,49,10.30
2011,07,09,06,50,10.40
2011,07,09,06,51,10.40
2011,07,09,06,52,10.50
2011,07,09,06,53,10.50
2011,07,09,06,54,10.60
2011,07,09,06,55,10.60
2011,07,09,06,56,10.70
2011,07,09,06,57,10.80
2011,07,09,06,58,10.80
2011,07,09,06,59,10.80
2011,07,09,07,00,10.90
2011,07,09,07,01,11.00
2011,07,09,07,02,11.10
2011,07,09,07,03,11.10
2011,07,09,07,04,11.20
2011,07,09,07,05,11.20
2011,07,09,07,06,11.30
2011,07,09,07,07,11.30
2011,07,09,07,08,11.40
2011,07,09,07,09,11.40
2011,07,09,07,10,11.40
2011,07,09,07,11,11.50
2011,07,09,07,12,11.60
2011,07,09,07,13,11.60
2011,07,09,07,14,11.70
2011,07,09,07,15,11.80
2011,07,09,07,16,11.80
2011,07,09,07,17,11.90
2011,07,09,07,18,11.90
2011,07,09,07,19,12.00
2011,07,09,07,20,12.00
2011,07,09,07,21,12.10
2011,07,09,07,22,12.20
2011,07,09,07,23,12.20
2011,07,09,07,24,12.30
2011,07,09,07,25,12.30
2011,07,09,07,26,12.30
2011,07,09,07,27,12.40
2011,07,09,07,28,12.40
2011,07,09,07,29,12.50
2011,07,09,07,30,12.50
2011,07,09,07,31,12.60
2011,07,09,07,32,12.60
2011,07,09,07,33,12.70
2011,07,09,07,34,12.70
2011,07,09,07,35,12.70
2011,07,09,07,36,12.80
2011,07,09,07,37,12.80
2011,07,09,07,38,12.90
2011,07,09,07,39,12.90
2011,07,09,07,40,12.90
2011,07,09,07,41,13.00
2011,07,09,07,42,13.10
2011,07,09,07,43,13.10
2011,07,09,07,44,13.20
2011,07,09,07,45,13.20
2011,07,09,07,46,13.30
2011,07,09,07,47,13.40
2011,07,09,07,48,13.40
2011,07,09,07,49,13.50
2011,07,09,07,50,13.50
2011,07,09,07,51,13.60
2011,07,09,07,52,13.60
2011,07,09,07,53,13.60
2011,07,09,07,54,13.70
2011,07,09,07,55,13.70
2011,07,09,07,56,13.70
2011,07,09,07,57,13.70
2011,07,09,07,58,13.80
2011,07,09,07,59,13.80
2011,07,09,08,00,13.80
2011,07,09,08,01,13.80
2011,07,09,08,02,13.80
2011,07,09,08,03,13.80
2011,07,09,08,04,13.90
2011,07,09,08,05,13.90
2011,07,09,08,06,13.90
2011,07,09,08,07,13.90
2011,07,09,08,08,14.00
2011,07,09,08,09,14.00
2011,07,09,08,10,14.00
2011,07,09,08,11,14.00
2011,07,09,08,12,14.10
2011,07,09,08,13,14.10
2011,07,09,08,14,14.10
2011,07,09,08,15,14.20
2011,07,09,08,16,14.20
2011,07,09,08,17,14.20
2011,07,09,08,18,14.20
2011,07,09,08,19,14.20
2011,07,09,08,20,14.20
2011,07,09,08,21,14.20
2011,07,09,08,22,14.20
2011,07,09,08,23,14.30
2011,07,09,08,24,14.30
2011,07,09,08,25,14.40
2011,07,09,08,26,14.40
2011,07,09,08,27,14.50
2011,07,09,08,28,14.60
2011,07,09,08,29,14.70
2011,07,09,08,30,14.80
2011,07,09,08,31,14.90
2011,07,09,08,32,15.00
2011,07,09,08,33,15.00
2011,07,09,08,34,15.00
2011,07,09,08,35,15.10
2011,07,09,08,36,15.20
2011,07,09,08,37,15.20
2011,07,09,08,38,15.30
2011,07,09,08,39,15.30
2011,07,09,08,40,15.30
2011,07,09,08,41,15.30
2011,07,09,08,42,15.30
2011,07,09,08,43,15.40
2011,07,09,08,44,15.30
2011,07,09,08,45,15.40
2011,07,09,08,46,15.40
2011,07,09,08,47,15.40
2011,07,09,08,48,15.40
2011,07,09,08,49,15.40
2011,07,09,08,50,15.40
2011,07,09,08,51,15.40
2011,07,09,08,52,15.50
2011,07,09,08,53,15.60
2011,07,09,08,54,15.60
2011,07,09,08,55,15.70
2011,07,09,08,56,15.80
2011,07,09,08,57,15.90
2011,07,09,08,58,15.90
2011,07,09,08,59,16.00
2011,07,09,09,00,16.00
2011,07,09,09,01,16.10
2011,07,09,09,02,16.20
2011,07,09,09,03,16.20
2011,07,09,09,04,16.20
2011,07,09,09,05,16.20
2011,07,09,09,06,16.30
2011,07,09,09,07,16.30
2011,07,09,09,08,16.30
2011,07,09,09,09,16.30
2011,07,09,09,10,16.20
2011,07,09,09,11,16.20
2011,07,09,09,12,16.20
2011,07,09,09,13,16.30
2011,07,09,09,14,16.30
2011,07,09,09,15,16.30
2011,07,09,09,16,16.40
2011,07,09,09,17,16.40
2011,07,09,09,18,16.40
2011,07,09,09,19,16.50
2011,07,09,09,20,16.50
2011,07,09,09,21,16.60
2011,07,09,09,22,16.60
2011,07,09,09,23,16.60
2011,07,09,09,24,16.70
2011,07,09,09,25,16.70
2011,07,09,09,26,16.80
2011,07,09,09,27,16.80
2011,07,09,09,28,16.70
2011,07,09,09,29,16.70
2011,07,09,09,30,16.80
2011,07,09,09,31,16.80
2011,07,09,09,32,16.80
2011,07,09,09,33,16.80
2011,07,09,09,34,16.80
2011,07,09,09,35,16.80
2011,07,09,09,36,16.80
2011,07,09,09,37,16.80
2011,07,09,09,38,16.80
2011,07,09,09,39,16.80
2011,07,09,09,40,16.70
2011,07,09,09,41,16.70
2011,07,09,09,42,16.70
2011,07,09,09,43,16.70
2011,07,09,09,44,16.60
2011,07,09,09,45,16.60
2011,07,09,09,46,16.60
2011,07,09,09,47,16.60
2011,07,09,09,48,16.60
2011,07,09,09,49,16.60
2011,07,09,09,50,16.60
2011,07,09,09,51,16.70
2011,07,09,09,52,16.70
2011,07,09,09,53,16.80
2011,07,09,09,54,16.80
2011,07,09,09,55,16.90
2011,07,09,09,56,16.90
2011,07,09,09,57,16.90
2011,07,09,09,58,16.90
2011,07,09,09,59,16.90
2011,07,09,10,00,17.00
2011,07,09,10,01,17.10
2011,07,09,10,02,17.20
2011,07,09,10,03,17.20
2011,07,09,10,04,17.20
2011,07,09,10,05,17.30
2011,07,09,10,06,17.30
2011,07,09,10,07,17.40
2011,07,09,10,08,17.40
2011,07,09,10,09,17.40
2011,07,09,10,10,17.40
2011,07,09,10,11,17.40
2011,07,09,10,12,17.30
2011,07,09,10,13,17.40
2011,07,09,10,14,17.40
2011,07,09,10,15,17.50
2011,07,09,10,16,17.60
2011,07,09,10,17,17.60
2011,07,09,10,18,17.70
2011,07,09,10,19,17.70
2011,07,09,10,20,17.70
2011,07,09,10,21,17.70
2011,07,09,10,22,17.70
2011,07,09,10,23,17.70
2011,07,09,10,24,17.70
2011,07,09,10,25,17.70
2011,07,09,10,26,17.80
2011,07,09,10,27,17.80
2011,07,09,10,28,17.80
2011,07,09,10,29,17.80
2011,07,09,10,30,17.90
2011,07,09,10,31,17.90
2011,07,09,10,32,17.90
2011,07,09,10,33,17.90
2011,07,09,10,34,17.80
2011,07,09,10,35,17.80
2011,07,09,10,36,17.80
2011,07,09,10,37,17.70
2011,07,09,10,38,17.60
2011,07,09,10,39,17.60
2011,07,09,10,40,17.60
2011,07,09,10,41,17.60
2011,07,09,10,42,17.60
2011,07,09,10,43,17.60
2011,07,09,10,44,17.70
2011,07,09,10,45,17.70
2011,07,09,10,46,17.70
2011,07,09,10,47,17.60
2011,07,09,10,48,17.60
2011,07,09,10,49,17.70
2011,07,09,10,50,17.70
2011,07,09,10,51,17.80
2011,07,09,10,52,17.80
2011,07,09,10,53,17.90
2011,07,09,10,54,18.00
2011,07,09,10,55,18.10
2011,07,09,10,56,18.20
2011,07,09,10,57,18.20
2011,07,09,10,58,18.30
2011,07,09,10,59,18.30
2011,07,09,11,00,18.40
2011,07,09,11,01,18.50
2011,07,09,11,02,18.50
2011,07,09,11,03,18.50
2011,07,09,11,04,18.60
2011,07,09,11,05,18.60
2011,07,09,11,06,18.60
2011,07,09,11,07,18.60
2011,07,09,11,08,18.50
2011,07,09,11,09,18.50
2011,07,09,11,10,18.40
2011,07,09,11,11,18.40
2011,07,09,11,12,18.40
2011,07,09,11,13,18.40
2011,07,09,11,14,18.40
2011,07,09,11,15,18.40
2011,07,09,11,16,18.40
2011,07,09,11,17,18.30
2011,07,09,11,18,18.20
2011,07,09,11,19,18.20
2011,07,09,11,20,18.20
2011,07,09,11,21,18.20
2011,07,09,11,22,18.20
2011,07,09,11,23,18.30
2011,07,09,11,24,18.40
2011,07,09,11,25,18.50
2011,07,09,11,26,18.50
2011,07,09,11,27,18.50
2011,07,09,11,28,18.60
2011,07,09,11,29,18.50
2011,07,09,11,30,18.40
2011,07,09,11,31,18.50
2011,07,09,11,32,18.60
2011,07,09,11,33,18.60
2011,07,09,11,34,18.60
2011,07,09,11,35,18.60
2011,07,09,11,36,18.60
2011,07,09,11,37,18.60
2011,07,09,11,38,18.50
2011,07,09,11,39,18.40
2011,07,09,11,40,18.30
2011,07,09,11,41,18.20
2011,07,09,11,42,18.20
2011,07,09,11,43,18.20
2011,07,09,11,44,18.30
2011,07,09,11,45,18.50
2011,07,09,11,46,18.60
2011,07,09,11,47,18.70
2011,07,09,11,48,18.80
2011,07,09,11,49,18.90
2011,07,09,11,50,19.10
2011,07,09,11,51,19.10
2011,07,09,11,52,19.20
2011,07,09,11,53,19.30
2011,07,09,11,54,19.30
2011,07,09,11,55,19.30
2011,07,09,11,56,19.30
2011,07,09,11,57,19.30
2011,07,09,11,58,19.40
2011,07,09,11,59,19.50
2011,07,09,12,00,19.50
2011,07,09,12,01,19.40
2011,07,09,12,02,19.30
2011,07,09,12,03,19.30
2011,07,09,12,04,19.20
2011,07,09,12,05,19.10
2011,07,09,12,06,19.10
2011,07,09,12,07,19.20
2011,07,09,12,08,19.30
2011,07,09,12,09,19.40
2011,07,09,12,10,19.50
2011,07,09,12,11,19.60
2011,07,09,12,12,19.70
2011,07,09,12,13,19.70
2011,07,09,12,14,19.60
2011,07,09,12,15,19.50
2011,07,09,12,16,19.50
2011,07,09,12,17,19.40
2011,07,09,12,18,19.20
2011,07,09,12,19,19.10
2011,07,09,12,20,19.10
2011,07,09,12,21,19.10
2011,07,09,12,22,19.20
2011,07,09,12,23,19.10
2011,07,09,12,24,19.00
2011,07,09,12,25,19.00
2011,07,09,12,26,19.00
2011,07,09,12,27,19.10
2011,07,09,12,28,19.20
2011,07,09,12,29,19.30
2011,07,09,12,30,19.40
2011,07,09,12,31,19.30
2011,07,09,12,32,19.30
2011,07,09,12,33,19.40
2011,07,09,12,34,19.40
2011,07,09,12,35,19.40
2011,07,09,12,36,19.40
2011,07,09,12,37,19.40
2011,07,09,12,38,19.50
2011,07,09,12,39,19.40
2011,07,09,12,40,19.50
2011,07,09,12,41,19.50
2011,07,09,12,42,19.70
2011,07,09,12,43,19.80
2011,07,09,12,44,19.80
2011,07,09,12,45,19.70
2011,07,09,12,46,19.60
2011,07,09,12,47,19.40
2011,07,09,12,48,19.30
2011,07,09,12,49,19.10
2011,07,09,12,50,19.00
2011,07,09,12,51,18.90
2011,07,09,12,52,19.00
2011,07,09,12,53,19.00
2011,07,09,12,54,19.10
2011,07,09,12,55,19.20
2011,07,09,12,56,19.20
2011,07,09,12,57,19.20
2011,07,09,12,58,19.30
2011,07,09,12,59,19.30
2011,07,09,13,00,19.40
2011,07,09,13,01,19.40
2011,07,09,13,02,19.40
2011,07,09,13,03,19.40
2011,07,09,13,04,19.40
2011,07,09,13,05,19.40
2011,07,09,13,06,19.40
2011,07,09,13,07,19.40
2011,07,09,13,08,19.20
2011,07,09,13,09,19.00
2011,07,09,13,10,18.80
2011,07,09,13,11,18.60
2011,07,09,13,12,18.50
2011,07,09,13,13,18.60
2011,07,09,13,14,18.50
2011,07,09,13,15,18.40
2011,07,09,13,16,18.40
2011,07,09,13,17,18.50
2011,07,09,13,18,18.60
2011,07,09,13,19,18.60
2011,07,09,13,20,18.60
2011,07,09,13,21,18.60
2011,07,09,13,22,18.60
2011,07,09,13,23,18.60
2011,07,09,13,24,18.70
2011,07,09,13,25,18.70
2011,07,09,13,26,18.60
2011,07,09,13,27,18.60
2011,07,09,13,28,18.60
2011,07,09,13,29,18.60
2011,07,09,13,30,18.70
2011,07,09,13,31,18.80
2011,07,09,13,32,18.90
2011,07,09,13,33,19.10
2011,07,09,13,34,19.30
2011,07,09,13,35,19.60
2011,07,09,13,36,19.80
2011,07,09,13,37,20.00
2011,07,09,13,38,20.00
2011,07,09,13,39,20.00
2011,07,09,13,40,20.00
2011,07,09,13,41,20.10
2011,07,09,13,42,20.20
2011,07,09,13,43,20.20
2011,07,09,13,44,20.20
2011,07,09,13,45,20.20
2011,07,09,13,46,20.20
2011,07,09,13,47,20.00
2011,07,09,13,48,19.90
2011,07,09,13,49,19.80
2011,07,09,13,50,19.90
2011,07,09,13,51,19.90
2011,07,09,13,52,19.90
2011,07,09,13,53,19.90
2011,07,09,13,54,19.90
2011,07,09,13,55,19.80
2011,07,09,13,56,19.80
2011,07,09,13,57,19.70
2011,07,09,13,58,19.60
2011,07,09,13,59,19.40
2011,07,09,14,00,19.20
2011,07,09,14,01,19.30
2011,07,09,14,02,19.30
2011,07,09,14,03,19.40
2011,07,09,14,04,19.50
2011,07,09,14,05,19.80
2011,07,09,14,06,20.00
2011,07,09,14,07,20.20
2011,07,09,14,08,20.50
2011,07,09,14,09,20.70
2011,07,09,14,10,20.80
2011,07,09,14,11,21.00
2011,07,09,14,12,21.10
2011,07,09,14,13,21.20
2011,07,09,14,14,21.20
2011,07,09,14,15,21.20
2011,07,09,14,16,21.20
2011,07,09,14,17,21.10
2011,07,09,14,18,21.10
2011,07,09,14,19,21.10
2011,07,09,14,20,20.90
2011,07,09,14,21,20.70
2011,07,09,14,22,20.30
2011,07,09,14,23,20.00
2011,07,09,14,24,19.90
2011,07,09,14,25,19.70
2011,07,09,14,26,19.60
2011,07,09,14,27,19.50
2011,07,09,14,28,19.30
2011,07,09,14,29,19.20
2011,07,09,14,30,19.20
2011,07,09,14,31,19.10
2011,07,09,14,32,19.10
2011,07,09,14,33,19.00
2011,07,09,14,34,19.00
2011,07,09,14,35,18.90
2011,07,09,14,36,19.00
2011,07,09,14,37,19.10
2011,07,09,14,38,19.10
2011,07,09,14,39,19.20
2011,07,09,14,40,19.40
2011,07,09,14,41,19.50
2011,07,09,14,42,19.60
2011,07,09,14,43,19.50
2011,07,09,14,44,19.40
2011,07,09,14,45,19.40
2011,07,09,14,46,19.30
2011,07,09,14,47,19.30
2011,07,09,14,48,19.30
2011,07,09,14,49,19.40
2011,07,09,14,50,19.30
2011,07,09,14,51,19.20
2011,07,09,14,52,19.10
2011,07,09,14,53,19.10
2011,07,09,14,54,19.10
2011,07,09,14,55,19.10
2011,07,09,14,56,19.10
2011,07,09,14,57,19.30
2011,07,09,14,58,19.40
2011,07,09,14,59,19.50
2011,07,09,15,00,19.50
2011,07,09,15,01,19.50
2011,07,09,15,02,19.60
2011,07,09,15,03,19.70
2011,07,09,15,04,19.70
2011,07,09,15,05,19.80
2011,07,09,15,06,19.90
2011,07,09,15,07,20.00
2011,07,09,15,08,20.10
2011,07,09,15,09,20.10
2011,07,09,15,10,20.10
2011,07,09,15,11,20.00
2011,07,09,15,12,19.90
2011,07,09,15,13,19.70
2011,07,09,15,14,19.60
2011,07,09,15,15,19.60
2011,07,09,15,16,19.60
2011,07,09,15,17,19.50
2011,07,09,15,18,19.50
2011,07,09,15,19,19.60
2011,07,09,15,20,19.60
2011,07,09,15,21,19.60
2011,07,09,15,22,19.80
2011,07,09,15,23,20.00
2011,07,09,15,24,20.10
2011,07,09,15,25,20.20
2011,07,09,15,26,20.30
2011,07,09,15,27,20.20
2011,07,09,15,28,20.10
2011,07,09,15,29,20.10
2011,07,09,15,30,20.10
2011,07,09,15,31,20.20
2011,07,09,15,32,20.20
2011,07,09,15,33,20.20
2011,07,09,15,34,20.30
2011,07,09,15,35,20.20
2011,07,09,15,36,20.20
2011,07,09,15,37,20.20
2011,07,09,15,38,20.30
2011,07,09,15,39,20.40
2011,07,09,15,40,20.60
2011,07,09,15,41,20.70
2011,07,09,15,42,20.60
2011,07,09,15,43,20.50
2011,07,09,15,44,20.50
2011,07,09,15,45,20.40
2011,07,09,15,46,20.40
2011,07,09,15,47,20.30
2011,07,09,15,48,20.20
2011,07,09,15,49,20.20
2011,07,09,15,50,20.30
2011,07,09,15,51,20.40
2011,07,09,15,52,20.40
2011,07,09,15,53,20.30
2011,07,09,15,54,20.30
2011,07,09,15,55,20.30
2011,07,09,15,56,20.40
2011,07,09,15,57,20.50
2011,07,09,15,58,20.60
2011,07,09,15,59,20.70
2011,07,09,16,00,20.70
2011,07,09,16,01,20.80
2011,07,09,16,02,20.80
2011,07,09,16,03,20.80
2011,07,09,16,04,20.90
2011,07,09,16,05,21.00
2011,07,09,16,06,21.00
2011,07,09,16,07,21.10
2011,07,09,16,08,21.10
2011,07,09,16,09,21.00
2011,07,09,16,10,21.00
2011,07,09,16,11,20.90
2011,07,09,16,12,20.90
2011,07,09,16,13,21.00
2011,07,09,16,14,21.00
2011,07,09,16,15,21.00
2011,07,09,16,16,20.90
2011,07,09,16,17,20.80
2011,07,09,16,18,20.60
2011,07,09,16,19,20.50
2011,07,09,16,20,20.40
2011,07,09,16,21,20.50
2011,07,09,16,22,20.50
2011,07,09,16,23,20.60
2011,07,09,16,24,20.70
2011,07,09,16,25,20.70
2011,07,09,16,26,20.80
2011,07,09,16,27,20.90
2011,07,09,16,28,21.00
2011,07,09,16,29,21.10
2011,07,09,16,30,21.20
2011,07,09,16,31,21.20
2011,07,09,16,32,21.20
2011,07,09,16,33,21.20
2011,07,09,16,34,21.20
2011,07,09,16,35,21.10
2011,07,09,16,36,21.10
2011,07,09,16,37,21.00
2011,07,09,16,38,21.00
2011,07,09,16,39,21.00
2011,07,09,16,40,20.90
2011,07,09,16,41,21.00
2011,07,09,16,42,21.10
2011,07,09,16,43,21.20
2011,07,09,16,44,21.20
2011,07,09,16,45,21.10
2011,07,09,16,46,21.10
2011,07,09,16,47,20.90
2011,07,09,16,48,20.80
2011,07,09,16,49,20.60
2011,07,09,16,50,20.50
2011,07,09,16,51,20.50
2011,07,09,16,52,20.50
2011,07,09,16,53,20.40
2011,07,09,16,54,20.40
2011,07,09,16,55,20.30
2011,07,09,16,56,20.20
2011,07,09,16,57,20.20
2011,07,09,16,58,20.20
2011,07,09,16,59,20.20
2011,07,09,17,00,20.20
2011,07,09,17,01,20.20
2011,07,09,17,02,20.20
2011,07,09,17,03,20.20
2011,07,09,17,04,20.20
2011,07,09,17,05,20.30
2011,07,09,17,06,20.40
2011,07,09,17,07,20.50
2011,07,09,17,08,20.50
2011,07,09,17,09,20.50
2011,07,09,17,10,20.40
2011,07,09,17,11,20.40
2011,07,09,17,12,20.40
2011,07,09,17,13,20.50
2011,07,09,17,14,20.50
2011,07,09,17,15,20.40
2011,07,09,17,16,20.30
2011,07,09,17,17,20.30
2011,07,09,17,18,20.30
2011,07,09,17,19,20.30
2011,07,09,17,20,20.20
2011,07,09,17,21,20.20
2011,07,09,17,22,20.10
2011,07,09,17,23,20.10
2011,07,09,17,24,20.20
2011,07,09,17,25,20.10
2011,07,09,17,26,20.20
2011,07,09,17,27,20.20
2011,07,09,17,28,20.20
2011,07,09,17,29,20.20
2011,07,09,17,30,20.20
2011,07,09,17,31,20.20
2011,07,09,17,32,20.20
2011,07,09,17,33,20.20
2011,07,09,17,34,20.30
2011,07,09,17,35,20.30
2011,07,09,17,36,20.30
2011,07,09,17,37,20.30
2011,07,09,17,38,20.30